Data supplied by UK-AIR on 30/3/2009
All Data GMT hour ending 
Status: R =Ratified P=Provisional,P*=As supplied
,,London Hillingdon,,,,,,,,,,,,,,,,,,,,,,,
Date,time,"Nitric oxide",status,unit,"Nitrogen dioxide",status,unit,"Nitrogen oxides as nitrogen dioxide",status,unit,"Ozone",status,unit
 
01-01-2008,01:00,,,,,,,,,,,,
01-01-2008,02:00,20,R,ugm-3,48,R,ugm-3,78,R,ugm-3,10,R,ugm-3
01-01-2008,03:00,14,R,ugm-3,44,R,ugm-3,65,R,ugm-3,12,R,ugm-3
01-01-2008,04:00,14,R,ugm-3,40,R,ugm-3,61,R,ugm-3,14,R,ugm-3
01-01-2008,05:00,14,R,ugm-3,40,R,ugm-3,61,R,ugm-3,14,R,ugm-3
01-01-2008,06:00,26,R,ugm-3,53,R,ugm-3,94,R,ugm-3,6,R,ugm-3
01-01-2008,07:00,53,R,ugm-3,63,R,ugm-3,143,R,ugm-3,6,R,ugm-3
01-01-2008,08:00,61,R,ugm-3,59,R,ugm-3,153,R,ugm-3,6,R,ugm-3
01-01-2008,09:00,118,R,ugm-3,78,R,ugm-3,258,R,ugm-3,6,R,ugm-3
01-01-2008,10:00,55,R,ugm-3,55,R,ugm-3,139,R,ugm-3,6,R,ugm-3
01-01-2008,11:00,54,R,ugm-3,55,R,ugm-3,138,R,ugm-3,6,R,ugm-3
01-01-2008,12:00,49,R,ugm-3,59,R,ugm-3,134,R,ugm-3,6,R,ugm-3
01-01-2008,13:00,40,R,ugm-3,55,R,ugm-3,117,R,ugm-3,8,R,ugm-3
01-01-2008,14:00,49,R,ugm-3,61,R,ugm-3,136,R,ugm-3,10,R,ugm-3
01-01-2008,15:00,65,R,ugm-3,69,R,ugm-3,168,R,ugm-3,6,R,ugm-3
01-01-2008,16:00,70,R,ugm-3,71,R,ugm-3,178,R,ugm-3,6,R,ugm-3
01-01-2008,17:00,81,R,ugm-3,71,R,ugm-3,195,R,ugm-3,4,R,ugm-3
01-01-2008,18:00,91,R,ugm-3,71,R,ugm-3,210,R,ugm-3,4,R,ugm-3
01-01-2008,19:00,83,R,ugm-3,69,R,ugm-3,195,R,ugm-3,6,R,ugm-3
01-01-2008,20:00,106,R,ugm-3,82,R,ugm-3,244,R,ugm-3,4,R,ugm-3
01-01-2008,21:00,119,R,ugm-3,88,R,ugm-3,269,R,ugm-3,4,R,ugm-3
01-01-2008,22:00,163,R,ugm-3,92,R,ugm-3,340,R,ugm-3,6,R,ugm-3
01-01-2008,23:00,103,R,ugm-3,78,R,ugm-3,235,R,ugm-3,4,R,ugm-3
01-01-2008,24:00,43,R,ugm-3,65,R,ugm-3,130,R,ugm-3,4,R,ugm-3
02-01-2008,01:00,11,R,ugm-3,57,R,ugm-3,74,R,ugm-3,4,R,ugm-3
02-01-2008,02:00,61,R,ugm-3,61,R,ugm-3,155,R,ugm-3,4,R,ugm-3
02-01-2008,03:00,39,R,ugm-3,50,R,ugm-3,109,R,ugm-3,6,R,ugm-3
02-01-2008,04:00,13,R,ugm-3,38,R,ugm-3,57,R,ugm-3,14,R,ugm-3
02-01-2008,05:00,34,R,ugm-3,38,R,ugm-3,90,R,ugm-3,14,R,ugm-3
02-01-2008,06:00,30,R,ugm-3,40,R,ugm-3,86,R,ugm-3,12,R,ugm-3
02-01-2008,07:00,56,R,ugm-3,52,R,ugm-3,138,R,ugm-3,6,R,ugm-3
02-01-2008,08:00,48,R,ugm-3,52,R,ugm-3,124,R,ugm-3,12,R,ugm-3
02-01-2008,09:00,45,R,ugm-3,55,R,ugm-3,124,R,ugm-3,18,R,ugm-3
02-01-2008,10:00,38,R,ugm-3,52,R,ugm-3,109,R,ugm-3,20,R,ugm-3
02-01-2008,11:00,44,R,ugm-3,52,R,ugm-3,118,R,ugm-3,14,R,ugm-3
02-01-2008,12:00,45,R,ugm-3,48,R,ugm-3,117,R,ugm-3,18,R,ugm-3
02-01-2008,13:00,26,R,ugm-3,38,R,ugm-3,78,R,ugm-3,18,R,ugm-3
02-01-2008,14:00,26,R,ugm-3,40,R,ugm-3,80,R,ugm-3,18,R,ugm-3
02-01-2008,15:00,14,R,ugm-3,36,R,ugm-3,57,R,ugm-3,28,R,ugm-3
02-01-2008,16:00,14,R,ugm-3,44,R,ugm-3,65,R,ugm-3,20,R,ugm-3
02-01-2008,17:00,19,R,ugm-3,59,R,ugm-3,88,R,ugm-3,8,R,ugm-3
02-01-2008,18:00,14,R,ugm-3,57,R,ugm-3,78,R,ugm-3,10,R,ugm-3
02-01-2008,19:00,15,R,ugm-3,57,R,ugm-3,80,R,ugm-3,8,R,ugm-3
02-01-2008,20:00,30,R,ugm-3,63,R,ugm-3,109,R,ugm-3,4,R,ugm-3
02-01-2008,21:00,43,R,ugm-3,61,R,ugm-3,126,R,ugm-3,4,R,ugm-3
02-01-2008,22:00,34,R,ugm-3,57,R,ugm-3,109,R,ugm-3,6,R,ugm-3
02-01-2008,23:00,28,R,ugm-3,55,R,ugm-3,97,R,ugm-3,8,R,ugm-3
02-01-2008,24:00,25,R,ugm-3,55,R,ugm-3,94,R,ugm-3,6,R,ugm-3
03-01-2008,01:00,5,R,ugm-3,40,R,ugm-3,48,R,ugm-3,18,R,ugm-3
03-01-2008,02:00,0,R,ugm-3,29,R,ugm-3,29,R,ugm-3,28,R,ugm-3
03-01-2008,03:00,1,R,ugm-3,21,R,ugm-3,23,R,ugm-3,36,R,ugm-3
03-01-2008,04:00,1,R,ugm-3,23,R,ugm-3,25,R,ugm-3,34,R,ugm-3
03-01-2008,05:00,9,R,ugm-3,34,R,ugm-3,48,R,ugm-3,22,R,ugm-3
03-01-2008,06:00,25,R,ugm-3,50,R,ugm-3,88,R,ugm-3,12,R,ugm-3
03-01-2008,07:00,16,R,ugm-3,50,R,ugm-3,74,R,ugm-3,12,R,ugm-3
03-01-2008,08:00,9,R,ugm-3,44,R,ugm-3,57,R,ugm-3,14,R,ugm-3
03-01-2008,09:00,28,R,ugm-3,57,R,ugm-3,99,R,ugm-3,8,R,ugm-3
03-01-2008,10:00,40,R,ugm-3,65,R,ugm-3,126,R,ugm-3,12,R,ugm-3
03-01-2008,11:00,14,R,ugm-3,46,R,ugm-3,67,R,ugm-3,18,R,ugm-3
03-01-2008,12:00,18,R,ugm-3,46,R,ugm-3,73,R,ugm-3,18,R,ugm-3
03-01-2008,13:00,16,R,ugm-3,46,R,ugm-3,71,R,ugm-3,14,R,ugm-3
03-01-2008,14:00,18,R,ugm-3,48,R,ugm-3,74,R,ugm-3,12,R,ugm-3
03-01-2008,15:00,18,R,ugm-3,50,R,ugm-3,76,R,ugm-3,8,R,ugm-3
03-01-2008,16:00,30,R,ugm-3,53,R,ugm-3,99,R,ugm-3,6,R,ugm-3
03-01-2008,17:00,24,R,ugm-3,52,R,ugm-3,88,R,ugm-3,2,R,ugm-3
03-01-2008,18:00,24,R,ugm-3,52,R,ugm-3,88,R,ugm-3,2,R,ugm-3
03-01-2008,19:00,31,R,ugm-3,52,R,ugm-3,99,R,ugm-3,2,R,ugm-3
03-01-2008,20:00,31,R,ugm-3,52,R,ugm-3,99,R,ugm-3,2,R,ugm-3
03-01-2008,21:00,20,R,ugm-3,46,R,ugm-3,76,R,ugm-3,2,R,ugm-3
03-01-2008,22:00,30,R,ugm-3,50,R,ugm-3,96,R,ugm-3,4,R,ugm-3
03-01-2008,23:00,88,R,ugm-3,59,R,ugm-3,193,R,ugm-3,4,R,ugm-3
03-01-2008,24:00,46,R,ugm-3,50,R,ugm-3,120,R,ugm-3,2,R,ugm-3
04-01-2008,01:00,89,R,ugm-3,59,R,ugm-3,195,R,ugm-3,4,R,ugm-3
04-01-2008,02:00,34,R,ugm-3,48,R,ugm-3,99,R,ugm-3,4,R,ugm-3
04-01-2008,03:00,64,R,ugm-3,53,R,ugm-3,151,R,ugm-3,4,R,ugm-3
04-01-2008,04:00,36,R,ugm-3,48,R,ugm-3,103,R,ugm-3,4,R,ugm-3
04-01-2008,05:00,84,R,ugm-3,59,R,ugm-3,187,R,ugm-3,4,R,ugm-3
04-01-2008,06:00,61,R,ugm-3,52,R,ugm-3,145,R,ugm-3,4,R,ugm-3
04-01-2008,07:00,133,R,ugm-3,74,R,ugm-3,277,R,ugm-3,4,R,ugm-3
04-01-2008,08:00,105,R,ugm-3,71,R,ugm-3,231,R,ugm-3,4,R,ugm-3
04-01-2008,09:00,123,R,ugm-3,78,R,ugm-3,265,R,ugm-3,4,R,ugm-3
04-01-2008,10:00,128,R,ugm-3,76,R,ugm-3,271,R,ugm-3,4,R,ugm-3
04-01-2008,11:00,146,R,ugm-3,78,R,ugm-3,302,R,ugm-3,4,R,ugm-3
04-01-2008,12:00,88,R,ugm-3,71,R,ugm-3,204,R,ugm-3,4,R,ugm-3
04-01-2008,13:00,83,R,ugm-3,76,R,ugm-3,202,R,ugm-3,6,R,ugm-3
04-01-2008,14:00,75,R,ugm-3,78,R,ugm-3,193,R,ugm-3,8,R,ugm-3
04-01-2008,15:00,55,R,ugm-3,74,R,ugm-3,159,R,ugm-3,10,R,ugm-3
04-01-2008,16:00,53,R,ugm-3,71,R,ugm-3,151,R,ugm-3,8,R,ugm-3
04-01-2008,17:00,46,R,ugm-3,73,R,ugm-3,143,R,ugm-3,10,R,ugm-3
04-01-2008,18:00,34,R,ugm-3,61,R,ugm-3,113,R,ugm-3,16,R,ugm-3
04-01-2008,19:00,31,R,ugm-3,61,R,ugm-3,109,R,ugm-3,16,R,ugm-3
04-01-2008,20:00,31,R,ugm-3,63,R,ugm-3,111,R,ugm-3,14,R,ugm-3
04-01-2008,21:00,20,R,ugm-3,50,R,ugm-3,80,R,ugm-3,22,R,ugm-3
04-01-2008,22:00,16,R,ugm-3,48,R,ugm-3,73,R,ugm-3,24,R,ugm-3
04-01-2008,23:00,16,R,ugm-3,48,R,ugm-3,73,R,ugm-3,24,R,ugm-3
04-01-2008,24:00,8,R,ugm-3,29,R,ugm-3,40,R,ugm-3,48,R,ugm-3
05-01-2008,01:00,10,R,ugm-3,29,R,ugm-3,44,R,ugm-3,48,R,ugm-3
05-01-2008,02:00,6,R,ugm-3,19,R,ugm-3,29,R,ugm-3,56,R,ugm-3
05-01-2008,03:00,6,R,ugm-3,19,R,ugm-3,29,R,ugm-3,52,R,ugm-3
05-01-2008,04:00,9,R,ugm-3,21,R,ugm-3,34,R,ugm-3,48,R,ugm-3
05-01-2008,05:00,9,R,ugm-3,25,R,ugm-3,38,R,ugm-3,50,R,ugm-3
05-01-2008,06:00,18,R,ugm-3,44,R,ugm-3,71,R,ugm-3,34,R,ugm-3
05-01-2008,07:00,21,R,ugm-3,52,R,ugm-3,84,R,ugm-3,30,R,ugm-3
05-01-2008,08:00,19,R,ugm-3,48,R,ugm-3,76,R,ugm-3,40,R,ugm-3
05-01-2008,09:00,18,R,ugm-3,48,R,ugm-3,74,R,ugm-3,42,R,ugm-3
05-01-2008,10:00,19,R,ugm-3,50,R,ugm-3,78,R,ugm-3,42,R,ugm-3
05-01-2008,11:00,19,R,ugm-3,50,R,ugm-3,78,R,ugm-3,44,R,ugm-3
05-01-2008,12:00,25,R,ugm-3,55,R,ugm-3,94,R,ugm-3,38,R,ugm-3
05-01-2008,13:00,29,R,ugm-3,61,R,ugm-3,105,R,ugm-3,32,R,ugm-3
05-01-2008,14:00,25,R,ugm-3,59,R,ugm-3,97,R,ugm-3,34,R,ugm-3
05-01-2008,15:00,15,R,ugm-3,48,R,ugm-3,71,R,ugm-3,44,R,ugm-3
05-01-2008,16:00,53,R,ugm-3,88,R,ugm-3,168,R,ugm-3,16,R,ugm-3
05-01-2008,17:00,81,R,ugm-3,103,R,ugm-3,227,R,ugm-3,8,R,ugm-3
05-01-2008,18:00,76,R,ugm-3,101,R,ugm-3,218,R,ugm-3,8,R,ugm-3
05-01-2008,19:00,88,R,ugm-3,103,R,ugm-3,237,R,ugm-3,6,R,ugm-3
05-01-2008,20:00,96,R,ugm-3,105,R,ugm-3,252,R,ugm-3,6,R,ugm-3
05-01-2008,21:00,86,R,ugm-3,92,R,ugm-3,223,R,ugm-3,4,R,ugm-3
05-01-2008,22:00,51,R,ugm-3,80,R,ugm-3,159,R,ugm-3,6,R,ugm-3
05-01-2008,23:00,69,R,ugm-3,80,R,ugm-3,185,R,ugm-3,6,R,ugm-3
05-01-2008,24:00,36,R,ugm-3,65,R,ugm-3,120,R,ugm-3,12,R,ugm-3
06-01-2008,01:00,29,R,ugm-3,61,R,ugm-3,105,R,ugm-3,10,R,ugm-3
06-01-2008,02:00,21,R,ugm-3,52,R,ugm-3,84,R,ugm-3,12,R,ugm-3
06-01-2008,03:00,11,R,ugm-3,38,R,ugm-3,55,R,ugm-3,20,R,ugm-3
06-01-2008,04:00,14,R,ugm-3,40,R,ugm-3,61,R,ugm-3,18,R,ugm-3
06-01-2008,05:00,25,R,ugm-3,52,R,ugm-3,90,R,ugm-3,8,R,ugm-3
06-01-2008,06:00,35,R,ugm-3,59,R,ugm-3,113,R,ugm-3,6,R,ugm-3
06-01-2008,07:00,58,R,ugm-3,71,R,ugm-3,159,R,ugm-3,4,R,ugm-3
06-01-2008,08:00,38,R,ugm-3,67,R,ugm-3,124,R,ugm-3,6,R,ugm-3
06-01-2008,09:00,24,R,ugm-3,59,R,ugm-3,96,R,ugm-3,12,R,ugm-3
06-01-2008,10:00,53,R,ugm-3,71,R,ugm-3,151,R,ugm-3,10,R,ugm-3
06-01-2008,11:00,66,R,ugm-3,73,R,ugm-3,174,R,ugm-3,10,R,ugm-3
06-01-2008,12:00,63,R,ugm-3,74,R,ugm-3,170,R,ugm-3,12,R,ugm-3
06-01-2008,13:00,66,R,ugm-3,80,R,ugm-3,181,R,ugm-3,12,R,ugm-3
06-01-2008,14:00,58,R,ugm-3,80,R,ugm-3,168,R,ugm-3,14,R,ugm-3
06-01-2008,15:00,64,R,ugm-3,88,R,ugm-3,185,R,ugm-3,10,R,ugm-3
06-01-2008,16:00,88,R,ugm-3,105,R,ugm-3,239,R,ugm-3,4,R,ugm-3
06-01-2008,17:00,98,R,ugm-3,99,R,ugm-3,248,R,ugm-3,4,R,ugm-3
06-01-2008,18:00,89,R,ugm-3,105,R,ugm-3,241,R,ugm-3,4,R,ugm-3
06-01-2008,19:00,68,R,ugm-3,92,R,ugm-3,195,R,ugm-3,6,R,ugm-3
06-01-2008,20:00,39,R,ugm-3,74,R,ugm-3,134,R,ugm-3,14,R,ugm-3
06-01-2008,21:00,28,R,ugm-3,63,R,ugm-3,105,R,ugm-3,22,R,ugm-3
06-01-2008,22:00,29,R,ugm-3,59,R,ugm-3,103,R,ugm-3,16,R,ugm-3
06-01-2008,23:00,33,R,ugm-3,59,R,ugm-3,109,R,ugm-3,10,R,ugm-3
06-01-2008,24:00,11,R,ugm-3,25,R,ugm-3,42,R,ugm-3,42,R,ugm-3
07-01-2008,01:00,4,R,ugm-3,13,R,ugm-3,19,R,ugm-3,62,R,ugm-3
07-01-2008,02:00,4,R,ugm-3,10,R,ugm-3,15,R,ugm-3,66,R,ugm-3
07-01-2008,03:00,4,R,ugm-3,11,R,ugm-3,17,R,ugm-3,68,R,ugm-3
07-01-2008,04:00,4,R,ugm-3,8,R,ugm-3,13,R,ugm-3,70,R,ugm-3
07-01-2008,05:00,5,R,ugm-3,13,R,ugm-3,21,R,ugm-3,70,R,ugm-3
07-01-2008,06:00,10,R,ugm-3,21,R,ugm-3,36,R,ugm-3,62,R,ugm-3
07-01-2008,07:00,20,R,ugm-3,42,R,ugm-3,73,R,ugm-3,48,R,ugm-3
07-01-2008,08:00,20,R,ugm-3,50,R,ugm-3,80,R,ugm-3,40,R,ugm-3
07-01-2008,09:00,16,R,ugm-3,46,R,ugm-3,71,R,ugm-3,40,R,ugm-3
07-01-2008,10:00,20,R,ugm-3,52,R,ugm-3,82,R,ugm-3,36,R,ugm-3
07-01-2008,11:00,21,R,ugm-3,48,R,ugm-3,80,R,ugm-3,38,R,ugm-3
07-01-2008,12:00,28,R,ugm-3,52,R,ugm-3,94,R,ugm-3,36,R,ugm-3
07-01-2008,13:00,19,R,ugm-3,48,R,ugm-3,76,R,ugm-3,36,R,ugm-3
07-01-2008,14:00,30,R,ugm-3,55,R,ugm-3,101,R,ugm-3,32,R,ugm-3
07-01-2008,15:00,20,R,ugm-3,46,R,ugm-3,76,R,ugm-3,38,R,ugm-3
07-01-2008,16:00,16,R,ugm-3,50,R,ugm-3,74,R,ugm-3,34,R,ugm-3
07-01-2008,17:00,34,R,ugm-3,74,R,ugm-3,126,R,ugm-3,20,R,ugm-3
07-01-2008,18:00,36,R,ugm-3,74,R,ugm-3,130,R,ugm-3,20,R,ugm-3
07-01-2008,19:00,36,R,ugm-3,74,R,ugm-3,130,R,ugm-3,18,R,ugm-3
07-01-2008,20:00,58,R,ugm-3,88,R,ugm-3,176,R,ugm-3,10,R,ugm-3
07-01-2008,21:00,50,R,ugm-3,78,R,ugm-3,155,R,ugm-3,10,R,ugm-3
07-01-2008,22:00,35,R,ugm-3,63,R,ugm-3,117,R,ugm-3,16,R,ugm-3
07-01-2008,23:00,20,R,ugm-3,50,R,ugm-3,80,R,ugm-3,22,R,ugm-3
07-01-2008,24:00,18,R,ugm-3,46,R,ugm-3,73,R,ugm-3,22,R,ugm-3
08-01-2008,01:00,8,R,ugm-3,32,R,ugm-3,44,R,ugm-3,34,R,ugm-3
08-01-2008,02:00,8,R,ugm-3,29,R,ugm-3,40,R,ugm-3,36,R,ugm-3
08-01-2008,03:00,6,R,ugm-3,29,R,ugm-3,38,R,ugm-3,38,R,ugm-3
08-01-2008,04:00,8,R,ugm-3,29,R,ugm-3,40,R,ugm-3,34,R,ugm-3
08-01-2008,05:00,13,R,ugm-3,38,R,ugm-3,57,R,ugm-3,30,R,ugm-3
08-01-2008,06:00,39,R,ugm-3,65,R,ugm-3,124,R,ugm-3,14,R,ugm-3
08-01-2008,07:00,78,R,ugm-3,94,R,ugm-3,212,R,ugm-3,6,R,ugm-3
08-01-2008,08:00,91,R,ugm-3,101,R,ugm-3,241,R,ugm-3,6,R,ugm-3
08-01-2008,09:00,113,R,ugm-3,109,R,ugm-3,281,R,ugm-3,2,R,ugm-3
08-01-2008,10:00,104,R,ugm-3,101,R,ugm-3,260,R,ugm-3,4,R,ugm-3
08-01-2008,11:00,70,R,ugm-3,94,R,ugm-3,201,R,ugm-3,10,R,ugm-3
08-01-2008,12:00,66,R,ugm-3,88,R,ugm-3,189,R,ugm-3,12,R,ugm-3
08-01-2008,13:00,50,R,ugm-3,76,R,ugm-3,153,R,ugm-3,18,R,ugm-3
08-01-2008,14:00,33,R,ugm-3,59,R,ugm-3,109,R,ugm-3,30,R,ugm-3
08-01-2008,15:00,38,R,ugm-3,67,R,ugm-3,124,R,ugm-3,22,R,ugm-3
08-01-2008,16:00,39,R,ugm-3,71,R,ugm-3,130,R,ugm-3,22,R,ugm-3
08-01-2008,17:00,44,R,ugm-3,74,R,ugm-3,141,R,ugm-3,18,R,ugm-3
08-01-2008,18:00,33,R,ugm-3,67,R,ugm-3,117,R,ugm-3,28,R,ugm-3
08-01-2008,19:00,31,R,ugm-3,69,R,ugm-3,117,R,ugm-3,28,R,ugm-3
08-01-2008,20:00,19,R,ugm-3,52,R,ugm-3,80,R,ugm-3,38,R,ugm-3
08-01-2008,21:00,11,R,ugm-3,36,R,ugm-3,53,R,ugm-3,50,R,ugm-3
08-01-2008,22:00,11,R,ugm-3,32,R,ugm-3,50,R,ugm-3,48,R,ugm-3
08-01-2008,23:00,8,R,ugm-3,29,R,ugm-3,40,R,ugm-3,50,R,ugm-3
08-01-2008,24:00,4,R,ugm-3,29,R,ugm-3,34,R,ugm-3,50,R,ugm-3
09-01-2008,01:00,9,R,ugm-3,42,R,ugm-3,55,R,ugm-3,34,R,ugm-3
09-01-2008,02:00,6,R,ugm-3,23,R,ugm-3,32,R,ugm-3,50,R,ugm-3
09-01-2008,03:00,5,R,ugm-3,19,R,ugm-3,27,R,ugm-3,52,R,ugm-3
09-01-2008,04:00,6,R,ugm-3,23,R,ugm-3,32,R,ugm-3,50,R,ugm-3
09-01-2008,05:00,10,R,ugm-3,29,R,ugm-3,44,R,ugm-3,42,R,ugm-3
09-01-2008,06:00,29,R,ugm-3,57,R,ugm-3,101,R,ugm-3,24,R,ugm-3
09-01-2008,07:00,56,R,ugm-3,82,R,ugm-3,168,R,ugm-3,14,R,ugm-3
09-01-2008,08:00,59,R,ugm-3,88,R,ugm-3,178,R,ugm-3,12,R,ugm-3
09-01-2008,09:00,71,R,ugm-3,96,R,ugm-3,204,R,ugm-3,8,R,ugm-3
09-01-2008,10:00,65,R,ugm-3,86,R,ugm-3,185,R,ugm-3,16,R,ugm-3
09-01-2008,11:00,40,R,ugm-3,69,R,ugm-3,130,R,ugm-3,26,R,ugm-3
09-01-2008,12:00,44,R,ugm-3,73,R,ugm-3,139,R,ugm-3,24,R,ugm-3
09-01-2008,13:00,48,R,ugm-3,73,R,ugm-3,145,R,ugm-3,26,R,ugm-3
09-01-2008,14:00,30,R,ugm-3,59,R,ugm-3,105,R,ugm-3,34,R,ugm-3
09-01-2008,15:00,38,R,ugm-3,69,R,ugm-3,126,R,ugm-3,26,R,ugm-3
09-01-2008,16:00,51,R,ugm-3,82,R,ugm-3,160,R,ugm-3,18,R,ugm-3
09-01-2008,17:00,46,R,ugm-3,84,R,ugm-3,155,R,ugm-3,16,R,ugm-3
09-01-2008,18:00,60,R,ugm-3,96,R,ugm-3,187,R,ugm-3,8,R,ugm-3
09-01-2008,19:00,56,R,ugm-3,90,R,ugm-3,176,R,ugm-3,8,R,ugm-3
09-01-2008,20:00,43,R,ugm-3,78,R,ugm-3,143,R,ugm-3,12,R,ugm-3
09-01-2008,21:00,29,R,ugm-3,63,R,ugm-3,107,R,ugm-3,20,R,ugm-3
09-01-2008,22:00,23,R,ugm-3,55,R,ugm-3,90,R,ugm-3,24,R,ugm-3
09-01-2008,23:00,13,R,ugm-3,36,R,ugm-3,55,R,ugm-3,40,R,ugm-3
09-01-2008,24:00,6,R,ugm-3,19,R,ugm-3,29,R,ugm-3,58,R,ugm-3
10-01-2008,01:00,5,R,ugm-3,15,R,ugm-3,23,R,ugm-3,62,R,ugm-3
10-01-2008,02:00,4,R,ugm-3,13,R,ugm-3,19,R,ugm-3,66,R,ugm-3
10-01-2008,03:00,4,R,ugm-3,13,R,ugm-3,19,R,ugm-3,68,R,ugm-3
10-01-2008,04:00,4,R,ugm-3,15,R,ugm-3,21,R,ugm-3,68,R,ugm-3
10-01-2008,05:00,6,R,ugm-3,17,R,ugm-3,27,R,ugm-3,64,R,ugm-3
10-01-2008,06:00,14,R,ugm-3,29,R,ugm-3,50,R,ugm-3,50,R,ugm-3
10-01-2008,07:00,33,R,ugm-3,59,R,ugm-3,109,R,ugm-3,32,R,ugm-3
10-01-2008,08:00,38,R,ugm-3,67,R,ugm-3,124,R,ugm-3,28,R,ugm-3
10-01-2008,09:00,43,R,ugm-3,69,R,ugm-3,134,R,ugm-3,26,R,ugm-3
10-01-2008,10:00,40,R,ugm-3,71,R,ugm-3,132,R,ugm-3,28,R,ugm-3
10-01-2008,11:00,36,R,ugm-3,63,R,ugm-3,118,R,ugm-3,30,R,ugm-3
10-01-2008,12:00,26,R,ugm-3,52,R,ugm-3,92,R,ugm-3,38,R,ugm-3
10-01-2008,13:00,25,R,ugm-3,52,R,ugm-3,90,R,ugm-3,38,R,ugm-3
10-01-2008,14:00,29,R,ugm-3,55,R,ugm-3,99,R,ugm-3,32,R,ugm-3
10-01-2008,15:00,33,R,ugm-3,59,R,ugm-3,109,R,ugm-3,28,R,ugm-3
10-01-2008,16:00,29,R,ugm-3,57,R,ugm-3,101,R,ugm-3,28,R,ugm-3
10-01-2008,17:00,38,R,ugm-3,71,R,ugm-3,128,R,ugm-3,18,R,ugm-3
10-01-2008,18:00,63,R,ugm-3,92,R,ugm-3,187,R,ugm-3,6,R,ugm-3
10-01-2008,19:00,76,R,ugm-3,97,R,ugm-3,214,R,ugm-3,4,R,ugm-3
10-01-2008,20:00,90,R,ugm-3,99,R,ugm-3,237,R,ugm-3,2,R,ugm-3
10-01-2008,21:00,55,R,ugm-3,78,R,ugm-3,162,R,ugm-3,4,R,ugm-3
10-01-2008,22:00,50,R,ugm-3,71,R,ugm-3,147,R,ugm-3,6,R,ugm-3
10-01-2008,23:00,53,R,ugm-3,67,R,ugm-3,147,R,ugm-3,4,R,ugm-3
10-01-2008,24:00,45,R,ugm-3,61,R,ugm-3,130,R,ugm-3,4,R,ugm-3
11-01-2008,01:00,51,R,ugm-3,59,R,ugm-3,138,R,ugm-3,4,R,ugm-3
11-01-2008,02:00,28,R,ugm-3,53,R,ugm-3,96,R,ugm-3,4,R,ugm-3
11-01-2008,03:00,26,R,ugm-3,48,R,ugm-3,88,R,ugm-3,4,R,ugm-3
11-01-2008,04:00,55,R,ugm-3,50,R,ugm-3,134,R,ugm-3,2,R,ugm-3
11-01-2008,05:00,68,R,ugm-3,55,R,ugm-3,159,R,ugm-3,2,R,ugm-3
11-01-2008,06:00,53,R,ugm-3,55,R,ugm-3,136,R,ugm-3,2,R,ugm-3
11-01-2008,07:00,66,R,ugm-3,69,R,ugm-3,170,R,ugm-3,2,R,ugm-3
11-01-2008,08:00,68,R,ugm-3,74,R,ugm-3,178,R,ugm-3,2,R,ugm-3
11-01-2008,09:00,41,R,ugm-3,67,R,ugm-3,130,R,ugm-3,2,R,ugm-3
11-01-2008,10:00,66,R,ugm-3,78,R,ugm-3,180,R,ugm-3,6,R,ugm-3
11-01-2008,11:00,44,R,ugm-3,73,R,ugm-3,139,R,ugm-3,20,R,ugm-3
11-01-2008,12:00,59,R,ugm-3,82,R,ugm-3,172,R,ugm-3,12,R,ugm-3
11-01-2008,13:00,55,R,ugm-3,76,R,ugm-3,160,R,ugm-3,14,R,ugm-3
11-01-2008,14:00,55,R,ugm-3,74,R,ugm-3,159,R,ugm-3,18,R,ugm-3
11-01-2008,15:00,54,R,ugm-3,80,R,ugm-3,162,R,ugm-3,18,R,ugm-3
11-01-2008,16:00,48,R,ugm-3,80,R,ugm-3,153,R,ugm-3,20,R,ugm-3
11-01-2008,17:00,56,R,ugm-3,90,R,ugm-3,176,R,ugm-3,14,R,ugm-3
11-01-2008,18:00,59,R,ugm-3,96,R,ugm-3,185,R,ugm-3,10,R,ugm-3
11-01-2008,19:00,58,R,ugm-3,94,R,ugm-3,181,R,ugm-3,10,R,ugm-3
11-01-2008,20:00,90,R,ugm-3,105,R,ugm-3,243,R,ugm-3,6,R,ugm-3
11-01-2008,21:00,45,R,ugm-3,76,R,ugm-3,145,R,ugm-3,4,R,ugm-3
11-01-2008,22:00,13,R,ugm-3,44,R,ugm-3,63,R,ugm-3,6,R,ugm-3
11-01-2008,23:00,5,R,ugm-3,21,R,ugm-3,29,R,ugm-3,38,R,ugm-3
11-01-2008,24:00,5,R,ugm-3,23,R,ugm-3,31,R,ugm-3,32,R,ugm-3
12-01-2008,01:00,4,R,ugm-3,6,R,ugm-3,11,R,ugm-3,58,R,ugm-3
12-01-2008,02:00,4,R,ugm-3,10,R,ugm-3,15,R,ugm-3,58,R,ugm-3
12-01-2008,03:00,4,R,ugm-3,11,R,ugm-3,17,R,ugm-3,48,R,ugm-3
12-01-2008,04:00,4,R,ugm-3,6,R,ugm-3,11,R,ugm-3,60,R,ugm-3
12-01-2008,05:00,4,R,ugm-3,8,R,ugm-3,13,R,ugm-3,56,R,ugm-3
12-01-2008,06:00,13,R,ugm-3,38,R,ugm-3,57,R,ugm-3,26,R,ugm-3
12-01-2008,07:00,45,R,ugm-3,53,R,ugm-3,122,R,ugm-3,24,R,ugm-3
12-01-2008,08:00,94,R,ugm-3,90,R,ugm-3,233,R,ugm-3,4,R,ugm-3
12-01-2008,09:00,109,R,ugm-3,96,R,ugm-3,262,R,ugm-3,4,R,ugm-3
12-01-2008,10:00,93,R,ugm-3,88,R,ugm-3,229,R,ugm-3,6,R,ugm-3
12-01-2008,11:00,53,R,ugm-3,65,R,ugm-3,145,R,ugm-3,16,R,ugm-3
12-01-2008,12:00,29,R,ugm-3,50,R,ugm-3,94,R,ugm-3,30,R,ugm-3
12-01-2008,13:00,33,R,ugm-3,55,R,ugm-3,105,R,ugm-3,26,R,ugm-3
12-01-2008,14:00,30,R,ugm-3,52,R,ugm-3,97,R,ugm-3,28,R,ugm-3
12-01-2008,15:00,30,R,ugm-3,53,R,ugm-3,99,R,ugm-3,28,R,ugm-3
12-01-2008,16:00,65,R,ugm-3,80,R,ugm-3,180,R,ugm-3,8,R,ugm-3
12-01-2008,17:00,101,R,ugm-3,101,R,ugm-3,256,R,ugm-3,4,R,ugm-3
12-01-2008,18:00,100,R,ugm-3,103,R,ugm-3,256,R,ugm-3,2,R,ugm-3
12-01-2008,19:00,91,R,ugm-3,97,R,ugm-3,237,R,ugm-3,2,R,ugm-3
12-01-2008,20:00,59,R,ugm-3,82,R,ugm-3,172,R,ugm-3,6,R,ugm-3
12-01-2008,21:00,31,R,ugm-3,69,R,ugm-3,117,R,ugm-3,14,R,ugm-3
12-01-2008,22:00,20,R,ugm-3,52,R,ugm-3,82,R,ugm-3,28,R,ugm-3
12-01-2008,23:00,14,R,ugm-3,38,R,ugm-3,59,R,ugm-3,36,R,ugm-3
12-01-2008,24:00,10,R,ugm-3,23,R,ugm-3,38,R,ugm-3,44,R,ugm-3
13-01-2008,01:00,8,R,ugm-3,25,R,ugm-3,36,R,ugm-3,40,R,ugm-3
13-01-2008,02:00,4,R,ugm-3,19,R,ugm-3,25,R,ugm-3,46,R,ugm-3
13-01-2008,03:00,4,R,ugm-3,13,R,ugm-3,19,R,ugm-3,52,R,ugm-3
13-01-2008,04:00,4,R,ugm-3,13,R,ugm-3,19,R,ugm-3,54,R,ugm-3
13-01-2008,05:00,3,R,ugm-3,13,R,ugm-3,17,R,ugm-3,54,R,ugm-3
13-01-2008,06:00,6,R,ugm-3,23,R,ugm-3,32,R,ugm-3,46,R,ugm-3
13-01-2008,07:00,9,R,ugm-3,27,R,ugm-3,40,R,ugm-3,46,R,ugm-3
13-01-2008,08:00,15,R,ugm-3,46,R,ugm-3,69,R,ugm-3,30,R,ugm-3
13-01-2008,09:00,15,R,ugm-3,42,R,ugm-3,65,R,ugm-3,36,R,ugm-3
13-01-2008,10:00,15,R,ugm-3,46,R,ugm-3,69,R,ugm-3,34,R,ugm-3
13-01-2008,11:00,18,R,ugm-3,44,R,ugm-3,71,R,ugm-3,38,R,ugm-3
13-01-2008,12:00,18,R,ugm-3,44,R,ugm-3,71,R,ugm-3,36,R,ugm-3
13-01-2008,13:00,23,R,ugm-3,46,R,ugm-3,80,R,ugm-3,32,R,ugm-3
13-01-2008,14:00,24,R,ugm-3,48,R,ugm-3,84,R,ugm-3,32,R,ugm-3
13-01-2008,15:00,19,R,ugm-3,42,R,ugm-3,71,R,ugm-3,36,R,ugm-3
13-01-2008,16:00,21,R,ugm-3,52,R,ugm-3,84,R,ugm-3,30,R,ugm-3
13-01-2008,17:00,26,R,ugm-3,53,R,ugm-3,94,R,ugm-3,26,R,ugm-3
13-01-2008,18:00,21,R,ugm-3,52,R,ugm-3,84,R,ugm-3,30,R,ugm-3
13-01-2008,19:00,21,R,ugm-3,50,R,ugm-3,82,R,ugm-3,30,R,ugm-3
13-01-2008,20:00,19,R,ugm-3,44,R,ugm-3,73,R,ugm-3,36,R,ugm-3
13-01-2008,21:00,18,R,ugm-3,46,R,ugm-3,73,R,ugm-3,34,R,ugm-3
13-01-2008,22:00,18,R,ugm-3,44,R,ugm-3,71,R,ugm-3,32,R,ugm-3
13-01-2008,23:00,18,R,ugm-3,48,R,ugm-3,74,R,ugm-3,26,R,ugm-3
13-01-2008,24:00,11,R,ugm-3,23,R,ugm-3,40,R,ugm-3,40,R,ugm-3
14-01-2008,01:00,9,R,ugm-3,17,R,ugm-3,31,R,ugm-3,46,R,ugm-3
14-01-2008,02:00,9,R,ugm-3,19,R,ugm-3,32,R,ugm-3,44,R,ugm-3
14-01-2008,03:00,11,R,ugm-3,19,R,ugm-3,36,R,ugm-3,42,R,ugm-3
14-01-2008,04:00,6,R,ugm-3,15,R,ugm-3,25,R,ugm-3,52,R,ugm-3
14-01-2008,05:00,11,R,ugm-3,27,R,ugm-3,44,R,ugm-3,40,R,ugm-3
14-01-2008,06:00,28,R,ugm-3,52,R,ugm-3,94,R,ugm-3,26,R,ugm-3
14-01-2008,07:00,48,R,ugm-3,69,R,ugm-3,141,R,ugm-3,20,R,ugm-3
14-01-2008,08:00,51,R,ugm-3,74,R,ugm-3,153,R,ugm-3,16,R,ugm-3
14-01-2008,09:00,49,R,ugm-3,69,R,ugm-3,143,R,ugm-3,16,R,ugm-3
14-01-2008,10:00,51,R,ugm-3,69,R,ugm-3,147,R,ugm-3,18,R,ugm-3
14-01-2008,11:00,41,R,ugm-3,63,R,ugm-3,126,R,ugm-3,24,R,ugm-3
14-01-2008,12:00,49,R,ugm-3,67,R,ugm-3,141,R,ugm-3,22,R,ugm-3
14-01-2008,13:00,46,R,ugm-3,63,R,ugm-3,134,R,ugm-3,22,R,ugm-3
14-01-2008,14:00,26,R,ugm-3,44,R,ugm-3,84,R,ugm-3,40,R,ugm-3
14-01-2008,15:00,28,R,ugm-3,48,R,ugm-3,90,R,ugm-3,36,R,ugm-3
14-01-2008,16:00,30,R,ugm-3,57,R,ugm-3,103,R,ugm-3,32,R,ugm-3
14-01-2008,17:00,46,R,ugm-3,74,R,ugm-3,145,R,ugm-3,18,R,ugm-3
14-01-2008,18:00,36,R,ugm-3,69,R,ugm-3,124,R,ugm-3,24,R,ugm-3
14-01-2008,19:00,31,R,ugm-3,65,R,ugm-3,113,R,ugm-3,24,R,ugm-3
14-01-2008,20:00,31,R,ugm-3,61,R,ugm-3,109,R,ugm-3,24,R,ugm-3
14-01-2008,21:00,28,R,ugm-3,52,R,ugm-3,94,R,ugm-3,26,R,ugm-3
14-01-2008,22:00,25,R,ugm-3,52,R,ugm-3,90,R,ugm-3,26,R,ugm-3
14-01-2008,23:00,31,R,ugm-3,57,R,ugm-3,105,R,ugm-3,18,R,ugm-3
14-01-2008,24:00,20,R,ugm-3,38,R,ugm-3,69,R,ugm-3,32,R,ugm-3
15-01-2008,01:00,10,R,ugm-3,21,R,ugm-3,36,R,ugm-3,48,R,ugm-3
15-01-2008,02:00,5,R,ugm-3,15,R,ugm-3,23,R,ugm-3,58,R,ugm-3
15-01-2008,03:00,5,R,ugm-3,11,R,ugm-3,19,R,ugm-3,62,R,ugm-3
15-01-2008,04:00,6,R,ugm-3,13,R,ugm-3,23,R,ugm-3,56,R,ugm-3
15-01-2008,05:00,6,R,ugm-3,17,R,ugm-3,27,R,ugm-3,54,R,ugm-3
15-01-2008,06:00,15,R,ugm-3,31,R,ugm-3,53,R,ugm-3,46,R,ugm-3
15-01-2008,07:00,29,R,ugm-3,53,R,ugm-3,97,R,ugm-3,32,R,ugm-3
15-01-2008,08:00,36,R,ugm-3,65,R,ugm-3,120,R,ugm-3,28,R,ugm-3
15-01-2008,09:00,,,,,,,,,,,,
15-01-2008,10:00,,,,,,,,,,,,
15-01-2008,11:00,35,R,ugm-3,63,R,ugm-3,117,R,ugm-3,26,R,ugm-3
15-01-2008,12:00,38,R,ugm-3,59,R,ugm-3,117,R,ugm-3,24,R,ugm-3
15-01-2008,13:00,30,R,ugm-3,55,R,ugm-3,101,R,ugm-3,30,R,ugm-3
15-01-2008,14:00,34,R,ugm-3,63,R,ugm-3,115,R,ugm-3,28,R,ugm-3
15-01-2008,15:00,34,R,ugm-3,65,R,ugm-3,117,R,ugm-3,26,R,ugm-3
15-01-2008,16:00,48,R,ugm-3,80,R,ugm-3,153,R,ugm-3,18,R,ugm-3
15-01-2008,17:00,63,R,ugm-3,96,R,ugm-3,191,R,ugm-3,8,R,ugm-3
15-01-2008,18:00,53,R,ugm-3,97,R,ugm-3,178,R,ugm-3,10,R,ugm-3
15-01-2008,19:00,39,R,ugm-3,86,R,ugm-3,145,R,ugm-3,18,R,ugm-3
15-01-2008,20:00,18,R,ugm-3,57,R,ugm-3,84,R,ugm-3,40,R,ugm-3
15-01-2008,21:00,8,R,ugm-3,32,R,ugm-3,44,R,ugm-3,50,R,ugm-3
15-01-2008,22:00,6,R,ugm-3,32,R,ugm-3,42,R,ugm-3,48,R,ugm-3
15-01-2008,23:00,11,R,ugm-3,31,R,ugm-3,48,R,ugm-3,52,R,ugm-3
15-01-2008,24:00,13,R,ugm-3,27,R,ugm-3,46,R,ugm-3,48,R,ugm-3
16-01-2008,01:00,10,R,ugm-3,25,R,ugm-3,40,R,ugm-3,50,R,ugm-3
16-01-2008,02:00,13,R,ugm-3,21,R,ugm-3,40,R,ugm-3,46,R,ugm-3
16-01-2008,03:00,13,R,ugm-3,25,R,ugm-3,44,R,ugm-3,42,R,ugm-3
16-01-2008,04:00,14,R,ugm-3,27,R,ugm-3,48,R,ugm-3,36,R,ugm-3
16-01-2008,05:00,24,R,ugm-3,46,R,ugm-3,82,R,ugm-3,20,R,ugm-3
16-01-2008,06:00,75,R,ugm-3,76,R,ugm-3,191,R,ugm-3,6,R,ugm-3
16-01-2008,07:00,158,R,ugm-3,111,R,ugm-3,351,R,ugm-3,4,R,ugm-3
16-01-2008,08:00,165,R,ugm-3,122,R,ugm-3,374,R,ugm-3,4,R,ugm-3
16-01-2008,09:00,163,R,ugm-3,122,R,ugm-3,371,R,ugm-3,4,R,ugm-3
16-01-2008,10:00,164,R,ugm-3,118,R,ugm-3,369,R,ugm-3,6,R,ugm-3
16-01-2008,11:00,75,R,ugm-3,78,R,ugm-3,193,R,ugm-3,16,R,ugm-3
16-01-2008,12:00,48,R,ugm-3,67,R,ugm-3,139,R,ugm-3,20,R,ugm-3
16-01-2008,13:00,58,R,ugm-3,71,R,ugm-3,159,R,ugm-3,18,R,ugm-3
16-01-2008,14:00,36,R,ugm-3,53,R,ugm-3,109,R,ugm-3,28,R,ugm-3
16-01-2008,15:00,51,R,ugm-3,69,R,ugm-3,147,R,ugm-3,22,R,ugm-3
16-01-2008,16:00,53,R,ugm-3,71,R,ugm-3,151,R,ugm-3,20,R,ugm-3
16-01-2008,17:00,231,R,ugm-3,136,R,ugm-3,489,R,ugm-3,6,R,ugm-3
16-01-2008,18:00,351,R,ugm-3,151,R,ugm-3,688,R,ugm-3,6,R,ugm-3
16-01-2008,19:00,411,R,ugm-3,157,R,ugm-3,785,R,ugm-3,6,R,ugm-3
16-01-2008,20:00,568,R,ugm-3,220,R,ugm-3,1087,R,ugm-3,8,R,ugm-3
16-01-2008,21:00,513,R,ugm-3,178,R,ugm-3,961,R,ugm-3,8,R,ugm-3
16-01-2008,22:00,589,R,ugm-3,197,R,ugm-3,1096,R,ugm-3,8,R,ugm-3
16-01-2008,23:00,509,R,ugm-3,160,R,ugm-3,938,R,ugm-3,8,R,ugm-3
16-01-2008,24:00,384,R,ugm-3,126,R,ugm-3,712,R,ugm-3,8,R,ugm-3
17-01-2008,01:00,419,R,ugm-3,126,R,ugm-3,766,R,ugm-3,6,R,ugm-3
17-01-2008,02:00,354,R,ugm-3,99,R,ugm-3,640,R,ugm-3,8,R,ugm-3
17-01-2008,03:00,320,R,ugm-3,94,R,ugm-3,583,R,ugm-3,6,R,ugm-3
17-01-2008,04:00,164,R,ugm-3,65,R,ugm-3,315,R,ugm-3,4,R,ugm-3